FENGYUN 1C DEB, 31181

Orbit data source: Space-Track

FENGYUN 1C DEB, 31181 is space debris in SSO originally from a launch on Mon, 10 May 1999 UTC launched from the Taiyaun Space Center, China (TSC). Fengyun 1C debris stems from the Chinese weather satellite Fengyun-1C, which was intentionally destroyed by a Chinese anti-satellite missile in 2007. This event dramatically increased the amount of space debris, with thousands of trackable fragments posing hazards to satellites and human spaceflight. The Fengyun 1C debris cloud has become a focal point in discussions about space sustainability and the need for international regulations to prevent the creation of new debris.

Loading next visibility...
Identifier
31181, 1999-025BJK
Orbit
SSO
Country
Flag of CNCN / PRC
Related business
Manufacturer
Unknown
Mission
Spacecraft
Bus & Motor
Unknown
Mass
Unknown
Launch date (UTC)
1999-05-10 (27 years ago)
Launch vehicle
Unknown
Launch site
Taiyaun Space Center, China (TSC)
Object type
Payload
Rocket body
Debris
Shape & HBR
Unknown shape, 0.1 m
Radar Cross Section
Small (<0.1 m²)

Expand to show TLE details & history
Last TLE update: 4 days ago

TLE from 4 days ago
0 FENGYUN 1C DEB
1 31181U 99025BJK 26261.03857097  .00000917  00000-0  51277-3 0  9997
2 31181  98.7532 292.3982 0046382   0.9081  28.9194 14.12703984997104
Epoch: 2026-09-18T00:55Z
TLE epoch observation values (Epoch: 2026-09-18T00:55:32.531Z)
Latitude
29.75085°
Longitude
-83.47657°
Altitude
824.52 km
Speed
7.459 km/s
True Right ascension
19h 09m 30s
True Declination
29° 36' 15"
Sunlit
Object was in daylight at epoch
Visualization orbit readout
Latitude
Unknown
Longitude
Unknown
Altitude
Unknown
Speed
Unknown
Apparent Right ascension
Unknown
Apparent Declination
Unknown
Sunlit
N/A
Visualization observer readout
Local Sidereal Time
04:29:36
Azimuth
Unknown
Elevation
Unknown
Doppler factor
Unknown
Orbital elements
Apogee altitude
880.817 km
Perigee altitude
813.791 km
Semi-major axis
7,225.441 km
Eccentricity
0.00464
Inclination
98.7532°
RAAN
292.3982°
Arg. of periapsis
0.9081°
True anomaly
29.17773°
Mean anomaly
28.9194°
Eccentric anomaly
29.04843°
Mean motion
3.53384 °/min
Orbital period
101.87 mins
BSTAR
0.00051277
Loading maneuver chart data...
Computing Atmospheric mass density...

Documentation

Showing up to 5 results
|